EN

Hourly Weather Gogolevka

Today, 16 May, Sunday

Time Temperature Precipitation Wind Pressure Humidity
00:00 +10°C° 0 mm 3 mps 749 mmHg 94%
01:00 +10°C° 0 mm 3 mps 748 mmHg 94%
02:00 +10°C° 0 mm 3 mps 748 mmHg 94%
03:00 +9°C° 0 mm 3 mps 748 mmHg 93%
04:00 +9°C° 0 mm 3 mps 748 mmHg 93%
05:00 +10°C° 0 mm 3 mps 748 mmHg 92%
06:00 +10°C° 0 mm 3 mps 748 mmHg 91%
07:00 +12°C° 0 mm 3 mps 748 mmHg 81%
08:00 +14°C° 0 mm 3 mps 748 mmHg 72%
09:00 +17°C° 0 mm 4 mps 748 mmHg 63%
10:00 +18°C° 0 mm 4 mps 747 mmHg 58%
11:00 +19°C° 0 mm 4 mps 747 mmHg 52%
12:00 +21°C° 0 mm 4 mps 747 mmHg 47%
13:00 +21°C° 0 mm 4 mps 746 mmHg 45%
14:00 +21°C° 0 mm 4 mps 746 mmHg 42%
15:00 +22°C° 0 mm 4 mps 746 mmHg 40%
16:00 +21°C° 0 mm 3 mps 745 mmHg 47%
17:00 +20°C° 0 mm 3 mps 745 mmHg 55%
18:00 +19°C° 0 mm 2 mps 745 mmHg 63%
19:00 +17°C° 0 mm 2 mps 745 mmHg 66%
20:00 +16°C° 0 mm 2 mps 745 mmHg 70%
21:00 +14°C° 0 mm 2 mps 745 mmHg 73%
22:00 +14°C° 0 mm 2 mps 745 mmHg 73%
23:00 +13°C° 0 mm 2 mps 745 mmHg 73%

Tomorrow, 17 May, Monday

Time Temperature Precipitation Wind Pressure Humidity
00:00 +12°C° 0 mm 2 mps 745 mmHg 74%
01:00 +12°C° 0 mm 1 mps 745 mmHg 73%
02:00 +12°C° 0 mm 1 mps 745 mmHg 73%
03:00 +11°C° 0 mm 1 mps 745 mmHg 73%
04:00 +11°C° 0 mm 1 mps 745 mmHg 73%
05:00 +12°C° 0 mm 1 mps 745 mmHg 73%
06:00 +12°C° 0 mm 1 mps 745 mmHg 73%
07:00 +14°C° 0 mm 1 mps 745 mmHg 65%
08:00 +17°C° 0 mm 2 mps 745 mmHg 58%
09:00 +19°C° 0 mm 2 mps 745 mmHg 51%
10:00 +20°C° 0 mm 2 mps 745 mmHg 46%
11:00 +23°C° 0 mm 2 mps 745 mmHg 41%
12:00 +24°C° 0 mm 3 mps 745 mmHg 36%
13:00 +24°C° 0 mm 3 mps 745 mmHg 35%
14:00 +25°C° 0 mm 3 mps 745 mmHg 35%
15:00 +25°C° 0 mm 4 mps 744 mmHg 34%
16:00 +24°C° 0 mm 3 mps 745 mmHg 41%
17:00 +22°C° 0 mm 3 mps 745 mmHg 47%
18:00 +21°C° 0 mm 2 mps 745 mmHg 54%
19:00 +19°C° 0 mm 2 mps 745 mmHg 57%
20:00 +17°C° 0 mm 2 mps 745 mmHg 61%
21:00 +15°C° 0 mm 2 mps 745 mmHg 64%
22:00 +15°C° 0 mm 2 mps 746 mmHg 65%
23:00 +14°C° 0 mm 2 mps 746 mmHg 66%

Day after tomorrow, 18 May, Tuesday

Time Temperature Precipitation Wind Pressure Humidity
00:00 +14°C° 0 mm 2 mps 746 mmHg 67%
01:00 +13°C° 0 mm 2 mps 746 mmHg 67%
02:00 +13°C° 0 mm 2 mps 746 mmHg 68%
03:00 +12°C° 0 mm 2 mps 746 mmHg 69%
04:00 +13°C° 0 mm 2 mps 746 mmHg 69%
05:00 +13°C° 0 mm 2 mps 746 mmHg 69%
06:00 +14°C° 0 mm 2 mps 746 mmHg 70%
07:00 +16°C° 0 mm 3 mps 746 mmHg 62%
08:00 +19°C° 0 mm 3 mps 746 mmHg 55%
09:00 +21°C° 0 mm 4 mps 746 mmHg 47%
10:00 +23°C° 0 mm 5 mps 746 mmHg 43%
11:00 +25°C° 0 mm 5 mps 746 mmHg 39%
12:00 +27°C° 0 mm 6 mps 745 mmHg 35%
13:00 +27°C° 0 mm 6 mps 745 mmHg 35%
14:00 +28°C° 0 mm 6 mps 745 mmHg 35%
15:00 +28°C° 0 mm 5 mps 744 mmHg 35%
16:00 +27°C° 0 mm 5 mps 744 mmHg 40%
17:00 +26°C° 0 mm 5 mps 744 mmHg 45%
18:00 +25°C° 0 mm 4 mps 744 mmHg 49%
19:00 +22°C° 0 mm 4 mps 744 mmHg 52%
20:00 +20°C° 0 mm 3 mps 744 mmHg 54%
21:00 +18°C° 0 mm 3 mps 744 mmHg 57%
22:00 +18°C° 0 mm 3 mps 745 mmHg 54%
23:00 +17°C° 0 mm 3 mps 745 mmHg 52%

19 May, Wednesday

Time Temperature Precipitation Wind Pressure Humidity
00:00 +17°C° 0 mm 4 mps 745 mmHg 50%
01:00 +15°C° 0 mm 4 mps 745 mmHg 54%
02:00 +14°C° 0 mm 3 mps 746 mmHg 58%
03:00 +14°C° 0 mm 3 mps 746 mmHg 63%
04:00 +13°C° 0.1 mm 3 mps 746 mmHg 67%
05:00 +14°C° 0.1 mm 2 mps 747 mmHg 72%
06:00 +14°C° 0.1 mm 2 mps 748 mmHg 77%
07:00 +16°C° 0 mm 2 mps 748 mmHg 72%
08:00 +18°C° 0 mm 2 mps 748 mmHg 67%
09:00 +19°C° 0 mm 2 mps 748 mmHg 61%
10:00 +21°C° 0 mm 2 mps 748 mmHg 58%
11:00 +23°C° 0 mm 2 mps 748 mmHg 54%
12:00 +25°C° 0 mm 3 mps 748 mmHg 50%
13:00 +25°C° 0 mm 3 mps 747 mmHg 48%
14:00 +26°C° 0 mm 3 mps 747 mmHg 46%
15:00 +26°C° 0 mm 3 mps 747 mmHg 44%
16:00 +26°C° 0 mm 2 mps 747 mmHg 49%
17:00 +25°C° 0 mm 2 mps 747 mmHg 54%
18:00 +24°C° 0 mm 1 mps 747 mmHg 60%
19:00 +22°C° 0.2 mm 1 mps 748 mmHg 66%
20:00 +20°C° 0.2 mm 1 mps 748 mmHg 72%
21:00 +18°C° 0.2 mm 1 mps 749 mmHg 78%
22:00 +18°C° 0.3 mm 1 mps 749 mmHg 82%
23:00 +16°C° 0.3 mm 1 mps 749 mmHg 87%

20 May, Thursday

Time Temperature Precipitation Wind Pressure Humidity
00:00 +16°C° 0.3 mm 1 mps 749 mmHg 92%
01:00 +15°C° 0.1 mm 1 mps 749 mmHg 92%
02:00 +15°C° 0.1 mm 1 mps 749 mmHg 93%
03:00 +15°C° 0.1 mm 1 mps 749 mmHg 93%
04:00 +15°C° 0 mm 1 mps 749 mmHg 92%
05:00 +16°C° 0 mm 1 mps 749 mmHg 91%
06:00 +16°C° 0 mm 1 mps 750 mmHg 89%
07:00 +18°C° 0 mm 2 mps 749 mmHg 79%
08:00 +21°C° 0 mm 3 mps 749 mmHg 68%
09:00 +23°C° 0 mm 4 mps 749 mmHg 57%
10:00 +25°C° 0 mm 4 mps 749 mmHg 52%
11:00 +27°C° 0 mm 4 mps 749 mmHg 48%
12:00 +29°C° 0 mm 5 mps 748 mmHg 43%
13:00 +29°C° 0 mm 5 mps 748 mmHg 42%
14:00 +30°C° 0 mm 5 mps 748 mmHg 42%
15:00 +30°C° 0 mm 5 mps 748 mmHg 41%
16:00 +29°C° 0 mm 4 mps 748 mmHg 47%
17:00 +27°C° 0 mm 4 mps 748 mmHg 54%
18:00 +26°C° 0 mm 3 mps 747 mmHg 60%
19:00 +24°C° 0 mm 3 mps 748 mmHg 61%
20:00 +22°C° 0 mm 3 mps 748 mmHg 61%
21:00 +20°C° 0 mm 3 mps 748 mmHg 61%
22:00 +19°C° 0 mm 3 mps 749 mmHg 63%
23:00 +18°C° 0 mm 2 mps 749 mmHg 65%

21 May, Friday

Time Temperature Precipitation Wind Pressure Humidity
00:00 +18°C° 0 mm 1 mps 749 mmHg 66%
01:00 +16°C° 0 mm 1 mps 749 mmHg 68%
02:00 +16°C° 0 mm 1 mps 749 mmHg 70%
03:00 +15°C° 0 mm 1 mps 748 mmHg 71%
04:00 +16°C° 0 mm 1 mps 749 mmHg 71%
05:00 +16°C° 0 mm 1 mps 749 mmHg 70%
06:00 +18°C° 0 mm 1 mps 749 mmHg 70%
07:00 +20°C° 0 mm 1 mps 748 mmHg 61%
08:00 +22°C° 0 mm 1 mps 748 mmHg 53%
09:00 +23°C° 0 mm 0 mps 748 mmHg 44%
10:00 +26°C° 0 mm 1 mps 747 mmHg 41%
11:00 +27°C° 0 mm 1 mps 747 mmHg 37%
12:00 +29°C° 0 mm 1 mps 746 mmHg 34%
13:00 +29°C° 0 mm 1 mps 746 mmHg 35%
14:00 +29°C° 0 mm 2 mps 745 mmHg 36%
15:00 +29°C° 0 mm 2 mps 745 mmHg 37%
16:00 +27°C° 0 mm 2 mps 745 mmHg 46%
17:00 +25°C° 0 mm 2 mps 745 mmHg 55%
18:00 +22°C° 0 mm 3 mps 745 mmHg 64%
19:00 +21°C° 0.1 mm 3 mps 745 mmHg 66%
20:00 +20°C° 0.1 mm 2 mps 745 mmHg 68%
21:00 +19°C° 0.1 mm 2 mps 745 mmHg 70%
22:00 +19°C° 0 mm 2 mps 745 mmHg 71%
23:00 +19°C° 0 mm 2 mps 745 mmHg 73%
Show more